Lexington Weather

Lexington, Massachusetts, USA

46°F
4/22/2024 9:41am 
  • Lexington Conditions: Clear
  • Temperature: 45.5°F / 7.5°CWarmer 2.3°F than last hour.
  • Dew Point: 24.8°FDecreased 2.0°Fsince last hour.
  • Relative Humidity: 44%Decreased 8.0% since last hour.
  • Wind: Calm, 10-min avg: Calm, gust: 5 mph
  • Barometer: 29.97 in Steady
  • Visibility: 10 miles
  • Rain Today: 0.00 in
  •   

Regional Weather Roundup
for Boston, MA

        
000
ASUS41 KBOX 221110
RWRBOX

REGIONAL WEATHER ROUNDUP
NATIONAL WEATHER SERVICE BOSTON/NORTON MA
700 AM EDT MON APR 22 2024

NOTE:  "FAIR" INDICATES FEW OR NO CLOUDS BELOW 12,000 FEET WITH NO 
SIGNIFICANT WEATHER AND/OR OBSTRUCTIONS TO VISIBILITY.

MAZALL-221200-
EASTERN MASSACHUSETTS
  
CITY           SKY/WX    TMP DP  RH WIND       PRES   REMARKS
BOSTON         MOSUNNY   43  27  53 W12       29.98R                  
BEVERLY        SUNNY     39  26  59 W6        29.96R                  
LAWRENCE       SUNNY     39  25  57 W5        29.98R                  
BEDFORD        SUNNY     37  27  67 W5        29.97R                  
NORWOOD        SUNNY     37  31  78 CALM      29.98R                  
MARSHFIELD     SUNNY     39  28  65 VRB5G12   29.96R                  
PLYMOUTH       SUNNY     39  28  64 W10       29.96R                  
TAUNTON        SUNNY     36  29  75 CALM      29.97R                  
NEW BEDFORD    SUNNY     41  29  62 W8        29.97R                  
$$

MAZALL-221200-
CAPE COD AND THE ISLANDS
  
CITY           SKY/WX    TMP DP  RH WIND       PRES   REMARKS
FALMOUTH       SUNNY     39  28  65 NW7       29.96R                  
HYANNIS        SUNNY     42  26  53 NW9       29.94R                  
CHATHAM        SUNNY     44  30  57 VRB5      29.95R                  
PROVINCETOWN   SUNNY     43  33  68 NW14      29.96R                  
NANTUCKET      SUNNY     45  31  58 NW16      29.95R                  
MARTHAS VNYRD  SUNNY     44  31  60 NW12      29.96R                  
$$
 
MAZALL-221200-
CENTRAL AND WESTERN MASSACHUSETTS
  
CITY           SKY/WX    TMP DP  RH WIND       PRES   REMARKS
WORCESTER      SUNNY     35  25  66 W7        29.95R WCI  29          
FITCHBURG      SUNNY     36  26  67 N3        29.98R                  
ORANGE         SUNNY     32  28  85 CALM      29.98R                  
SPRINGFIELD    SUNNY     34  29  80 CALM      29.97R                  
WESTFIELD      SUNNY     37  28  70 CALM      30.00R                  
NORTH ADAMS    SUNNY     38  25  59 W6        30.00R                  
PITTSFIELD     CLEAR     36  25  64 NW8       29.97R WCI  30          
$$
 
RIZALL-221200-
RHODE ISLAND
  
CITY           SKY/WX    TMP DP  RH WIND       PRES   REMARKS
PROVIDENCE     MOSUNNY   39  28  64 W3        29.99R                  
NEWPORT        SUNNY     40  29  64 NW6       29.98R                  
BLOCK ISLAND   SUNNY     43  29  57 NW10      30.00R                  
SMITHFIELD     SUNNY     37  27  67 NW7       29.97R WCI  32          
WESTERLY       SUNNY     36  30  79 CALM      30.00R                  
$$
 
CTZALL-221200-
CONNECTICUT
  
CITY           SKY/WX    TMP DP  RH WIND       PRES   REMARKS
BRADLEY INTL   MOSUNNY   39  28  64 W7        30.01R                  
HARTFORD       SUNNY     38  29  70 CALM      30.01R                  
PLAINVILLE     FAIR      39  28  64 NW5       30.01R                  
BRIDGEPORT     CLEAR     39  28  64 W3        30.02R                  
DANBURY        CLEAR     34  28  79 MISG      30.02R                  
GROTON         SUNNY     37  32  82 NE3       30.00R                  
NEW HAVEN      SUNNY     43  31  62 NW5       30.02R                  
CHESTER        SUNNY     41  25  52 MISG      30.00R                  
MERIDEN        SUNNY     32  28  85 CALM      30.02R                  
WILLIMANTIC    SUNNY     32  29  88 NE3       30.00R                  
OXFORD         CLEAR     36  24  62 NW3       30.00R                  
$$

MEZ002-015-021-024-NHZ003-005-008-011-012-014-VTZ005-008-221200-
NORTHERN NEW ENGLAND
  
CITY           SKY/WX    TMP DP  RH WIND       PRES   REMARKS
PORTLAND ME    SUNNY     40  22  48 VRB3      29.92R                  
BANGOR ME      MOSUNNY   38  20  48 W9        29.88R WCI  31          
CONCORD NH     SUNNY     37  15  40 NW16G25   29.96R WCI  28          
MANCHESTER NH  SUNNY     40  19  43 NW10      29.95R                  
NASHUA NH      SUNNY     39  19  44 NW15      29.98R WCI  31          
PORTSMOUTH NH  SUNNY     40  25  54 NW7       29.94R                  
JAFFREY NH     SUNNY     37  19  48 VRB6      29.95R                  
KEENE NH       SUNNY     32  27  81 CALM      29.99R                  
BURLINGTON VT  MOSUNNY   33  17  51 N9        30.05R WCI  25          
MT. WASHINGTON PTSUNNY    3  -2  78 NW63        N/A  WCI -29          
$$

NYZ052-076-221200-
EASTERN NEW YORK
  
CITY           SKY/WX    TMP DP  RH WIND       PRES   REMARKS
ALBANY         PTCLDY    39  29  67 NW7       30.04R                  
NEW YORK CITY  PTCLDY    44  24  45 NW10      30.04R                  
$$
 
ANZALL-221200-
MARINE OBSERVATIONS
  
STATION/POSITION TIME  TEMP    WIND        PRES    VSBY  WAVE
                       AIR SEA DIR/SP/G                  HT/PER
                 (UTC) (F)     (DEG/KT/KT) (MB)    (MI)  (FT/S)
BOSTON BUOY      1050   43     280/ 16/ 17 1014.4R         2/ 3
BUZZARDS BAY     1000   43     310/ 17/ 19 1014.8R
NANTUCKET SOUND  1050   45 47  310/ 17/ 21 1013.8R         2/ 3
MASS BAY-STELLWA 0904   43 45  270/ 12/ 14 1012.9R  1 7/8  1/ 3
ISLE OF SHOALS   1000   41     260/ 12/ 13 1012.6R
S OF BLOCK IS    1056      45                N/A           3/ 4
$$

......................KEY.........................
  SKY/WX - SKY CONDITION/PRESENT WEATHER
  TMP    - TEMPERATURE IN FAHRENHEIT
  DWPT   - DEWPOINT IN FAHRENHEIT
  RH     - RELATIVE HUMIDITY IN PERCENT
  WIND   - DIRECTION AND SPEED IN MPH
  PRES   - MEAN SEA LEVEL PRESSURE IN INCHES OF HG
  WCI    - WIND CHILL INDEX
  VSB    - VISIBILITY IN MILES
  HX     - HEAT INDEX
  TC     - TEMPERATURE IN CELSIUS
  VRB    - VARIABLE WIND DIRECTION
  N/A    - NOT AVAILABLE
  
      

Other recent Regional Weather Roundups

Mon Apr 22, 9:10am EDT

Mon Apr 22, 8:10am EDT

Mon Apr 22, 6:10am EDT

Mon Apr 22, 5:10am EDT

Mon Apr 22, 4:10am EDT

Mon Apr 22, 3:10am EDT

Mon Apr 22, 2:10am EDT

Mon Apr 22, 1:10am EDT

Mon Apr 22, 12:10am EDT

Sun Apr 21, 11:10pm EDT

Sun Apr 21, 10:10pm EDT

Sun Apr 21, 9:10pm EDT

Sun Apr 21, 8:10pm EDT

Sun Apr 21, 7:10pm EDT

Sun Apr 21, 6:10pm EDT

Sun Apr 21, 5:10pm EDT

Sun Apr 21, 4:10pm EDT

Sun Apr 21, 3:10pm EDT

Sun Apr 21, 2:10pm EDT

Sun Apr 21, 1:10pm EDT

Sun Apr 21, 12:10pm EDT

Sun Apr 21, 11:10am EDT

Sun Apr 21, 10:10am EDT

Sun Apr 21, 9:10am EDT

Sun Apr 21, 8:10am EDT

Sun Apr 21, 7:10am EDT

Sun Apr 21, 6:10am EDT

Sun Apr 21, 5:10am EDT

Sun Apr 21, 4:10am EDT

Sun Apr 21, 3:10am EDT

Sun Apr 21, 2:10am EDT

Sun Apr 21, 1:10am EDT

Sun Apr 21, 12:10am EDT

Sat Apr 20, 11:10pm EDT

Sat Apr 20, 10:10pm EDT

Sat Apr 20, 9:10pm EDT

Sat Apr 20, 8:10pm EDT

Sat Apr 20, 7:10pm EDT

Sat Apr 20, 6:10pm EDT

Sat Apr 20, 5:10pm EDT

Sat Apr 20, 4:10pm EDT

Sat Apr 20, 3:10pm EDT

Sat Apr 20, 2:10pm EDT

Sat Apr 20, 1:10pm EDT

Sat Apr 20, 12:10pm EDT

Sat Apr 20, 11:10am EDT

Sat Apr 20, 10:10am EDT

Sat Apr 20, 9:10am EDT

Sat Apr 20, 8:10am EDT

Sat Apr 20, 7:10am EDT

Sat Apr 20, 6:10am EDT

Sat Apr 20, 5:10am EDT

Sat Apr 20, 4:10am EDT

Sat Apr 20, 3:10am EDT

Sat Apr 20, 2:10am EDT

Sat Apr 20, 1:10am EDT

Sat Apr 20, 12:10am EDT

Fri Apr 19, 11:10pm EDT

Fri Apr 19, 10:10pm EDT

Fri Apr 19, 9:10pm EDT

Fri Apr 19, 8:10pm EDT

Fri Apr 19, 7:10pm EDT

Fri Apr 19, 6:10pm EDT

Fri Apr 19, 5:10pm EDT

Fri Apr 19, 4:10pm EDT

Fri Apr 19, 3:10pm EDT

Fri Apr 19, 2:10pm EDT

Fri Apr 19, 1:10pm EDT

Fri Apr 19, 12:10pm EDT

Fri Apr 19, 11:10am EDT

Fri Apr 19, 10:10am EDT

Fri Apr 19, 9:10am EDT

Fri Apr 19, 8:10am EDT

Fri Apr 19, 7:10am EDT

Fri Apr 19, 6:10am EDT

Fri Apr 19, 5:10am EDT

Fri Apr 19, 4:10am EDT

Fri Apr 19, 3:10am EDT

Fri Apr 19, 2:10am EDT

Fri Apr 19, 1:10am EDT

Fri Apr 19, 12:10am EDT

Thu Apr 18, 11:10pm EDT

Thu Apr 18, 10:10pm EDT

Thu Apr 18, 9:10pm EDT

Thu Apr 18, 8:10pm EDT

Thu Apr 18, 7:10pm EDT

Thu Apr 18, 6:10pm EDT

Thu Apr 18, 5:10pm EDT

Thu Apr 18, 4:10pm EDT

Thu Apr 18, 3:10pm EDT

Thu Apr 18, 2:10pm EDT

Thu Apr 18, 1:10pm EDT

Thu Apr 18, 12:10pm EDT

Thu Apr 18, 11:10am EDT

Thu Apr 18, 10:10am EDT

Thu Apr 18, 9:10am EDT

Thu Apr 18, 8:10am EDT

Thu Apr 18, 7:10am EDT

Thu Apr 18, 6:10am EDT

Thu Apr 18, 5:10am EDT

Thu Apr 18, 4:10am EDT

Thu Apr 18, 3:10am EDT

Thu Apr 18, 2:10am EDT

Thu Apr 18, 1:10am EDT

Thu Apr 18, 12:10am EDT

Wed Apr 17, 11:10pm EDT

Wed Apr 17, 10:10pm EDT

Wed Apr 17, 9:10pm EDT

Wed Apr 17, 8:10pm EDT

Wed Apr 17, 7:10pm EDT

Wed Apr 17, 6:10pm EDT

Wed Apr 17, 5:10pm EDT

Wed Apr 17, 4:10pm EDT

Wed Apr 17, 3:10pm EDT

Wed Apr 17, 2:10pm EDT

Wed Apr 17, 1:10pm EDT

Wed Apr 17, 12:10pm EDT

Wed Apr 17, 11:10am EDT

Wed Apr 17, 10:10am EDT

Wed Apr 17, 9:10am EDT

Wed Apr 17, 8:10am EDT

Wed Apr 17, 7:10am EDT

Wed Apr 17, 6:10am EDT

Wed Apr 17, 5:10am EDT

Wed Apr 17, 4:10am EDT

Wed Apr 17, 3:10am EDT

Wed Apr 17, 2:10am EDT

Wed Apr 17, 1:10am EDT

Wed Apr 17, 12:10am EDT

Tue Apr 16, 11:10pm EDT

Tue Apr 16, 10:10pm EDT

Tue Apr 16, 9:10pm EDT

Tue Apr 16, 8:10pm EDT

Tue Apr 16, 7:10pm EDT

Tue Apr 16, 6:10pm EDT

Tue Apr 16, 5:10pm EDT

Tue Apr 16, 4:10pm EDT

Tue Apr 16, 3:10pm EDT

Tue Apr 16, 2:10pm EDT

Tue Apr 16, 1:10pm EDT

Tue Apr 16, 12:10pm EDT

Tue Apr 16, 11:10am EDT

Tue Apr 16, 10:10am EDT

Tue Apr 16, 9:10am EDT

Tue Apr 16, 8:10am EDT

Tue Apr 16, 7:10am EDT

Tue Apr 16, 6:10am EDT

Tue Apr 16, 5:10am EDT

Tue Apr 16, 4:10am EDT

Tue Apr 16, 3:10am EDT

Tue Apr 16, 2:10am EDT

Tue Apr 16, 1:10am EDT

Tue Apr 16, 12:10am EDT

Mon Apr 15, 11:10pm EDT

Mon Apr 15, 10:10pm EDT

Mon Apr 15, 9:10pm EDT

Mon Apr 15, 8:10pm EDT

Mon Apr 15, 7:10pm EDT

Mon Apr 15, 6:10pm EDT

Mon Apr 15, 5:10pm EDT

Mon Apr 15, 4:10pm EDT

Mon Apr 15, 3:10pm EDT

Mon Apr 15, 2:10pm EDT

Mon Apr 15, 1:10pm EDT

Mon Apr 15, 12:10pm EDT

Mon Apr 15, 11:10am EDT

Mon Apr 15, 10:10am EDT